Location: Riverside Cemetery
(38.3047°N, 99.7773°W)
Time: 00:07:14
(UTC+00:00)

CENTAUR R/B - Pass Details

Date: 19 September 2020
Orbit: 755 x 1433 km, 63.4° (Epoch: 02 October)

Event Time Altitude Azimuth Distance (km) Brightness Sun altitude
Rises 02:34:33 0° 330° (NNW) 4,158 6.6 -22.5°
Reaches altitude 10° 02:37:25 10° 338° (NNW) 3,277 5.8 -23.0°
Maximum altitude 02:45:06 43° 48° (NE) 1,862 3.7 -24.4°
Enters shadow 02:47:17 37° 81° (E) 2,046 3.7 -24.8°
